This demonstration page uses our WeatherBlox Daily Observations layout. Learn more.

Left ArrowRight Arrow

39.51506, -84.39828

Hourly Observations for October 19, 2015

Temp ( °F °C ) Dew Point ( °F °C ) Humidity (%) Winds ( mph kmh ) Pressure ( in mb ) Visibility ( mi km ) Precip ( " mm )
12:15 am 00:15 Clear 36 2 31 -0.6 83 83 N N/A 30.45 1031 10 16 N/A
12:35 am 00:35 Clear 35 1.4 30 -0.9 85 85 N N/A 30.45 1031 10 16 N/A
12:55 am 00:55 Clear 34 1.2 31 -0.8 87 87 N N/A 30.45 1031 10 16 N/A
1:15 am 01:15 Clear 34 1.2 31 -0.8 87 87 N N/A 30.45 1031 10 16 N/A
1:35 am 01:35 Clear 34 1.2 31 -0.8 87 87 N N/A 30.45 1031 10 16 N/A
1:55 am 01:55 Clear 34 1.2 31 -0.7 87 87 N N/A 30.45 1031 10 16 N/A
2:15 am 02:15 Clear 34 1.2 31 -0.7 87 87 N N/A 30.45 1031 10 16 N/A
2:35 am 02:35 Clear 34 1.2 31 -0.5 89 89 N N/A 30.45 1031 10 16 N/A
2:55 am 02:55 Clear 34 1.2 31 -0.5 89 89 N N/A 30.48 1032 10 16 N/A
3:15 am 03:15 Clear with Mist and Fog 32 undefined 29 -1.8 88 88 N N/A 30.48 1032 5 8 N/A
3:35 am 03:35 Clear 34 1.2 31 -0.5 89 89 N N/A 30.48 1032 10 16 N/A
3:55 am 03:55 Clear 34 1.2 31 -0.3 90 90 N N/A 30.48 1032 10 16 N/A
4:15 am 04:15 Mostly Cloudy with Mist and Fog 34 1.2 32 -0.2 91 91 N N/A 30.48 1032 2 2 N/A
4:35 am 04:35 Clear 34 1.2 32 -0.2 91 91 N N/A 30.48 1032 7 11 N/A
4:55 am 04:55 Clear 34 1.2 32 -0.2 91 91 N N/A 30.48 1032 7 11 N/A
5:15 am 05:15 Clear 34 1.2 32 -0.2 91 91 N N/A 30.48 1032 7 11 N/A
5:35 am 05:35 Clear 34 1.2 32 -0.2 91 91 N N/A 30.48 1032 7 11 N/A
5:55 am 05:55 Mostly Cloudy with Mist and Fog 31 -0.4 28 -2 89 89 N N/A 30.48 1032 1 2 N/A
6:15 am 06:15 Mostly Cloudy with Mist and Fog 34 1.1 32 -0.2 91 91 N N/A 30.48 1032 2 2 N/A
6:35 am 06:35 Mostly Cloudy with Freezing Fog 30 -0.9 28 -2.4 90 90 N N/A 30.48 1032 1 1 N/A
6:55 am 06:55 Clear with Mist and Fog 32 0.2 30 -1.2 90 90 N N/A 30.48 1032 2 3 N/A
7:15 am 07:15 Mostly Cloudy with Fog 33 0.4 30 -1 90 90 N N/A 30.48 1032 1 1 N/A
7:35 am 07:35 Mostly Cloudy with Freezing Fog 29 -1.5 27 -3 90 90 N N/A 30.48 1032 0 0 N/A
7:55 am 07:55 Mostly Cloudy with Freezing Fog 31 -0.6 28 -2.1 90 90 N N/A 30.48 1032 5 8 N/A
8:15 am 08:15 Mostly Cloudy with Freezing Fog 31 -0.7 28 -2.1 90 90 N N/A 30.48 1032 5 8 N/A
8:35 am 08:35 Sunny with Mist and Fog 32 undefined 29 -1.5 90 90 N N/A 30.48 1032 4 6 N/A
8:55 am 08:55 Sunny with Mist and Fog 34 1.2 32 -0.1 91 91 N N/A 30.48 1032 5 8 N/A
9:15 am 09:15 Sunny 37 2.8 34 1.3 90 90 N N/A 30.48 1032 10 16 N/A
9:35 am 09:35 Sunny 40 4.5 37 2.6 88 88 N N/A 30.48 1032 10 16 N/A
9:55 am 09:55 Sunny 42 5.8 36 2 77 77 SW 3 6 30.48 1032 10 16 N/A
10:15 am 10:15 Sunny 47 8.2 37 2.6 68 68 SW 3 6 30.45 1031 10 16 N/A
10:35 am 10:35 Sunny 49 9.6 35 1.6 58 58 SW 7 11 30.45 1031 10 16 N/A
10:55 am 10:55 Sunny 52 11.2 34 1 50 50 SSW 8 13 30.45 1031 10 16 N/A
11:15 am 11:15 Sunny 55 12.5 33 0.8 45 45 WSW 5 7 30.42 1030 10 16 N/A
11:35 am 11:35 Sunny 57 13.8 32 undefined 39 39 SSW 8 13 30.42 1030 10 16 N/A
11:55 am 11:55 Sunny 58 14.3 31 -0.8 36 36 SW 10 17 30.42 1030 10 16 N/A
12:15 pm 12:15 Sunny 60 15.3 30 -1.1 33 33 SW 5 7 30.42 1030 10 16 N/A
12:35 pm 12:35 Sunny 61 16 25 -4.1 25 25 SW 13 20 30.39 1029 10 16 N/A
12:55 pm 12:55 Sunny 62 16.6 22 -5.7 21 21 SSW 13 20 30.39 1029 10 16 N/A
1:15 pm 13:15 Sunny 62 16.8 21 -6 21 21 SW 13 20 30.36 1028 10 16 N/A
1:35 pm 13:35 Sunny 64 17.5 19 -7 18 18 SW 15 24 30.36 1028 10 16 N/A
1:55 pm 13:55 Sunny 64 18 21 -6.2 19 19 SW 12 19 30.36 1028 10 16 N/A
2:15 pm 14:15 Sunny 67 19.5 21 -6 17 17 SW 13 20 30.30 1026 10 16 N/A
2:35 pm 14:35 Sunny 67 19.5 20 -6.7 16 16 SW 12 19 30.30 1026 10 16 N/A
2:55 pm 14:55 Sunny 67 19.5 21 -6.2 17 17 SW 13 20 30.27 1025 10 16 N/A
3:15 pm 15:15 Sunny 69 20.3 23 -5.1 18 18 SW 16 26 30.27 1025 10 16 N/A
3:35 pm 15:35 Sunny 69 20.8 23 -5 17 17 SSW 12 19 30.27 1025 10 16 N/A
3:55 pm 15:55 Sunny 69 20.8 23 -5.1 17 17 SW 10 17 30.27 1025 10 16 N/A
4:15 pm 16:15 Sunny 69 20.8 23 -5.2 17 17 SW 13 20 30.27 1025 10 16 N/A
4:35 pm 16:35 Sunny 69 20.8 21 -6 16 16 SSW 13 20 30.24 1024 10 16 N/A
4:55 pm 16:55 Sunny 69 20.8 21 -6 16 16 SW 13 20 30.24 1024 10 16 N/A
5:15 pm 17:15 Sunny 69 20.8 21 -5.9 16 16 SSW 10 17 30.24 1024 10 16 N/A
5:35 pm 17:35 Sunny 69 20.8 23 -4.9 17 17 SSW 13 20 30.24 1024 10 16 N/A
5:55 pm 17:55 Sunny 67 19.5 22 -5.6 18 18 SSW 10 17 30.24 1024 10 16 N/A
6:15 pm 18:15 Sunny 67 19.2 23 -5.2 19 19 SSW 9 15 30.24 1024 10 16 N/A
6:35 pm 18:35 Sunny 64 18 22 -5.3 20 20 SSW 10 17 30.24 1024 10 16 N/A
6:55 pm 18:55 Clear 62 16.6 23 -5.2 22 22 SSW 8 13 30.27 1025 10 16 N/A
7:15 pm 19:15 Clear 61 16 24 -4.7 24 24 S 6 9 30.27 1025 10 16 N/A
7:35 pm 19:35 Clear 60 15.3 26 -3.6 27 27 SSW 6 9 30.27 1025 10 16 N/A
7:55 pm 19:55 Clear 57 13.8 29 -1.9 34 34 SSW 5 7 30.27 1025 10 16 N/A
8:15 pm 20:15 Clear 52 11.3 33 0.3 47 47 SW 5 7 30.27 1025 10 16 N/A
8:35 pm 20:35 Clear 55 12.5 33 0.5 44 44 SW 5 7 30.27 1025 10 16 N/A
8:55 pm 20:55 Clear 52 11 32 undefined 47 47 SW 5 7 30.27 1025 10 16 N/A
9:15 pm 21:15 Clear 52 11.1 34 1 50 50 SW 6 9 30.27 1025 10 16 N/A
9:35 pm 21:35 Clear 55 12.5 34 1 46 46 SW 5 7 30.27 1025 10 16 N/A
9:55 pm 21:55 Clear 50 10 34 1.2 55 55 WSW 6 9 30.27 1025 10 16 N/A
10:15 pm 22:15 Clear 49 9.6 36 2.4 61 61 SW 6 9 30.27 1025 10 16 N/A
10:35 pm 22:35 Clear 49 9.6 35 1.4 57 57 SW 7 11 30.27 1025 10 16 N/A
10:55 pm 22:55 Clear 49 9.6 35 1.6 58 58 SW 6 9 30.27 1025 10 16 N/A
11:15 pm 23:15 Clear 51 10.7 35 1.5 53 53 SW 5 7 30.27 1025 10 16 N/A
11:35 pm 23:35 Clear 49 9.6 33 0.8 55 55 SSW 6 9 30.27 1025 10 16 N/A
11:55 pm 23:55 Clear 49 9.6 37 2.7 62 62 SSW 5 7 30.27 1025 10 16 N/A

Powered by AerisWeather